| time (UTC) | temp F | wind direction | speed knots | gust knots | rain 1hr in | rain 24hr in | rain mn in | humidity % | barometer mb |
| 20260504201619 | 71 | 278 | 6.1 | 11.3 | 0.00 | 0.00 | 0.00 | 32 | 1007.8 |
| 20260504201117 | 70 | 255 | 9.6 | 13.0 | 0.00 | 0.00 | 0.00 | 32 | 1008.0 |
| 20260504200614 | 69 | 250 | 6.1 | 8.7 | 0.00 | 0.00 | 0.00 | 32 | 1008.3 |
| 20260504200110 | 71 | 223 | 7.8 | 13.0 | 0.00 | 0.00 | 0.00 | 31 | 1008.4 |
| 20260504195607 | 69 | 259 | 7.8 | 12.2 | 0.00 | 0.00 | 0.00 | 35 | 1008.4 |
| 20260504195103 | 70 | 267 | 9.6 | 16.5 | 0.00 | 0.00 | 0.00 | 33 | 1008.4 |
| 20260504194600 | 70 | 238 | 2.6 | 13.9 | 0.00 | 0.00 | 0.00 | 33 | 1008.5 |
| 20260504194055 | 70 | 251 | 7.8 | 12.2 | 0.00 | 0.00 | 0.00 | 32 | 1008.7 |
| 20260504193552 | 69 | 239 | 0.9 | 5.2 | 0.00 | 0.00 | 0.00 | 34 | 1008.7 |
| 20260504193051 | 69 | 225 | 5.2 | 8.7 | 0.00 | 0.00 | 0.00 | 34 | 1008.8 |
| 20260504192548 | 69 | 213 | 6.1 | 12.2 | 0.00 | 0.00 | 0.00 | 33 | 1009.0 |
| 20260504192046 | 70 | 209 | 8.7 | 12.2 | 0.00 | 0.00 | 0.00 | 34 | 1009.0 |
| 20260504191544 | 70 | 283 | 9.6 | 15.6 | 0.00 | 0.00 | 0.00 | 36 | 1008.7 |
| 20260504191040 | 68 | 260 | 7.0 | 13.0 | 0.00 | 0.00 | 0.00 | 34 | 1008.8 |
| 20260504190537 | 68 | 230 | 3.5 | 9.6 | 0.00 | 0.00 | 0.00 | 35 | 1009.0 |
| 20260504190032 | 69 | 268 | 4.3 | 12.2 | 0.00 | 0.00 | 0.00 | 33 | 1009.0 |
| 20260504185530 | 67 | 265 | 9.6 | 15.6 | 0.00 | 0.00 | 0.00 | 37 | 1009.1 |
| 20260504185026 | 69 | 238 | 4.3 | 12.2 | 0.00 | 0.00 | 0.00 | 37 | 1009.1 |
| 20260504184521 | 68 | 284 | 8.7 | 15.6 | 0.00 | 0.00 | 0.00 | 36 | 1009.1 |
| 20260504184017 | 68 | 224 | 3.5 | 7.8 | 0.00 | 0.00 | 0.00 | 38 | 1009.1 |
| 20260504183515 | 69 | 226 | 5.2 | 11.3 | 0.00 | 0.00 | 0.00 | 38 | 1009.1 |
| 20260504183013 | 68 | 224 | 7.8 | 9.6 | 0.00 | 0.00 | 0.00 | 37 | 1009.2 |
| 20260504182509 | 68 | 268 | 9.6 | 11.3 | 0.00 | 0.00 | 0.00 | 39 | 1009.4 |
| 20260504182007 | 69 | 275 | 11.3 | 16.5 | 0.00 | 0.00 | 0.00 | 37 | 1009.3 |
| 20260504181503 | 69 | 227 | 6.1 | 16.5 | 0.00 | 0.00 | 0.00 | 37 | 1009.5 |
| 20260504181002 | 68 | 92 | 7.0 | 12.2 | 0.00 | 0.00 | 0.00 | 39 | 1009.5 |
| 20260504180501 | 68 | 270 | 6.1 | 15.6 | 0.00 | 0.00 | 0.00 | 39 | 1009.4 |
| 20260504175958 | 69 | 176 | 7.8 | 11.3 | 0.00 | 0.00 | 0.00 | 37 | 1009.6 |
| 20260504175455 | 67 | 170 | 9.6 | 13.0 | 0.00 | 0.00 | 0.00 | 38 | 1009.7 |
| 20260504174953 | 68 | 260 | 9.6 | 16.5 | 0.00 | 0.00 | 0.00 | 38 | 1009.8 |
| 20260504174450 | 68 | 189 | 5.2 | 11.3 | 0.00 | 0.00 | 0.00 | 39 | 1009.6 |
| 20260504173947 | 67 | 206 | 5.2 | 14.8 | 0.00 | 0.00 | 0.00 | 43 | 1009.4 |
| 20260504173443 | 68 | 237 | 9.6 | 16.5 | 0.00 | 0.00 | 0.00 | 38 | 1009.3 |
| 20260504172941 | 67 | 286 | 3.5 | 11.3 | 0.00 | 0.00 | 0.00 | 41 | 1009.5 |
| 20260504172437 | 67 | 241 | 8.7 | 12.2 | 0.00 | 0.00 | 0.00 | 41 | 1009.5 |
| 20260504171934 | 66 | 244 | 5.2 | 13.9 | 0.00 | 0.00 | 0.00 | 42 | 1009.7 |
| 20260504171431 | 66 | 258 | 7.8 | 13.9 | 0.00 | 0.00 | 0.00 | 43 | 1009.6 |
| 20260504170928 | 66 | 308 | 10.4 | 15.6 | 0.00 | 0.00 | 0.00 | 42 | 1009.6 |
| 20260504170424 | 66 | 266 | 7.0 | 13.0 | 0.00 | 0.00 | 0.00 | 41 | 1009.6 |
| 20260504160343 | 62 | 269 | 7.8 | 12.2 | 0.00 | 0.00 | 0.00 | 47 | 1010.3 |
| 20260504150808 | 60 | 261 | 10.4 | 13.9 | 0.00 | 0.00 | 0.00 | 45 | 1011.0 |
| 20260504150304 | 59 | 207 | 6.1 | 7.8 | 0.00 | 0.00 | 0.00 | 45 | 1010.9 |
| 20260504141235 | 58 | 259 | 2.6 | 3.5 | 0.00 | 0.00 | 0.00 | 48 | 1011.2 |
| 20260504140731 | 57 | 251 | 8.7 | 12.2 | 0.00 | 0.00 | 0.00 | 47 | 1011.3 |
| 20260504140226 | 57 | 270 | 12.2 | 18.2 | 0.00 | 0.00 | 0.00 | 46 | 1011.3 |
| 20260504130655 | 54 | 211 | 1.7 | 6.1 | 0.00 | 0.00 | 0.00 | 49 | 1011.7 |
| 20260504130151 | 53 | 264 | 1.7 | 7.0 | 0.00 | 0.00 | 0.00 | 52 | 1011.9 |
| 20260504120115 | 47 | 225 | 3.5 | 6.1 | 0.00 | 0.00 | 0.00 | 56 | 1012.2 |
| 20260504110543 | 46 | 203 | 1.7 | 6.1 | 0.00 | 0.00 | 0.00 | 58 | 1012.1 |
| 20260504100505 | 43 | 172 | 0.0 | 1.7 | 0.00 | 0.00 | 0.00 | 61 | 1012.0 |
| 20260504081858 | 41 | 141 | 0.0 | 0.0 | 0.00 | 0.00 | 0.00 | 66 | 1012.4 |
| 20260504081354 | 41 | 141 | 0.0 | 0.0 | 0.00 | 0.00 | 0.00 | 66 | 1012.4 |
| 20260504080850 | 42 | 169 | 0.0 | 0.0 | 0.00 | 0.00 | 0.00 | 63 | 1012.2 |
| 20260504080348 | 43 | 170 | 0.0 | 0.0 | 0.00 | 0.00 | 0.00 | 63 | 1012.2 |
| 20260504070315 | 44 | 247 | 0.0 | 2.6 | 0.00 | 0.00 | 0.00 | 60 | 1012.4 |
| 20260504060235 | 44 | 220 | 0.9 | 5.2 | 0.00 | 0.00 | 0.00 | 59 | 1012.5 |
| 20260504050703 | 45 | 245 | 0.9 | 1.7 | 0.00 | 0.00 | 0.00 | 57 | 1012.5 |
| 20260504050200 | 45 | 235 | 0.0 | 0.9 | 0.00 | 0.00 | 0.00 | 57 | 1012.6 |
| 20260504045658 | 44 | 256 | 1.7 | 1.7 | 0.00 | 0.00 | 0.00 | 58 | 1012.8 |
| 20260504045157 | 44 | 239 | 0.0 | 0.0 | 0.00 | 0.00 | 0.00 | 58 | 1012.5 |
| 20260504044655 | 45 | 213 | 0.0 | 0.0 | 0.00 | 0.00 | 0.00 | 58 | 1012.6 |
| 20260504044152 | 44 | 219 | 0.9 | 0.9 | 0.00 | 0.00 | 0.00 | 58 | 1012.8 |
| 20260504043649 | 45 | 228 | 0.0 | 0.0 | 0.00 | 0.00 | 0.00 | 59 | 1012.6 |
| 20260504043146 | 44 | 193 | 0.9 | 2.6 | 0.00 | 0.00 | 0.00 | 59 | 1012.5 |
| 20260504042644 | 44 | 176 | 0.0 | 0.9 | 0.00 | 0.00 | 0.00 | 59 | 1012.5 |
| 20260504042140 | 44 | 191 | 0.0 | 0.0 | 0.00 | 0.00 | 0.00 | 60 | 1012.4 |
| 20260504041636 | 44 | 178 | 0.0 | 0.9 | 0.00 | 0.00 | 0.00 | 59 | 1012.4 |
| 20260504041132 | 44 | 322 | 0.0 | 0.0 | 0.00 | 0.00 | 0.00 | 58 | 1012.6 |
| 20260504040630 | 44 | 310 | 0.0 | 0.9 | 0.00 | 0.00 | 0.00 | 59 | 1012.8 |
| 20260504040127 | 45 | 285 | 0.0 | 0.9 | 0.00 | 0.00 | 0.00 | 58 | 1012.4 |
| 20260504035623 | 45 | 23 | 0.0 | 0.9 | 0.00 | 0.00 | 0.00 | 58 | 1012.6 |
| 20260504035120 | 45 | 305 | 0.0 | 0.9 | 0.00 | 0.00 | 0.00 | 58 | 1012.5 |
| 20260504034618 | 45 | 280 | 0.0 | 0.0 | 0.00 | 0.00 | 0.00 | 58 | 1012.6 |
| 20260504034114 | 45 | 21 | 0.0 | 1.7 | 0.00 | 0.00 | 0.00 | 59 | 1012.5 |
| 20260504033612 | 45 | 45 | 0.0 | 0.9 | 0.00 | 0.00 | 0.00 | 59 | 1012.6 |
| 20260504033109 | 46 | 45 | 0.9 | 0.9 | 0.00 | 0.00 | 0.00 | 61 | 1012.6 |
| 20260504032606 | 46 | 22 | 0.0 | 0.0 | 0.00 | 0.00 | 0.00 | 58 | 1012.8 |
| 20260504032103 | 46 | 21 | 0.0 | 0.9 | 0.00 | 0.00 | 0.00 | 59 | 1012.8 |
| 20260504031600 | 46 | 47 | 0.0 | 0.0 | 0.00 | 0.00 | 0.00 | 60 | 1012.9 |
| 20260504031056 | 47 | 47 | 0.0 | 0.0 | 0.00 | 0.00 | 0.00 | 58 | 1013.0 |
| 20260504030553 | 47 | 47 | 0.0 | 0.0 | 0.00 | 0.00 | 0.00 | 59 | 1013.1 |
| 20260504030050 | 48 | 47 | 0.0 | 0.0 | 0.00 | 0.00 | 0.00 | 57 | 1013.0 |
| 20260504025547 | 48 | 47 | 0.9 | 0.9 | 0.00 | 0.00 | 0.00 | 55 | 1013.0 |
| 20260504025044 | 48 | 48 | 0.9 | 0.9 | 0.00 | 0.00 | 0.00 | 58 | 1012.8 |
| 20260504024541 | 49 | 47 | 0.0 | 0.0 | 0.00 | 0.00 | 0.00 | 54 | 1012.9 |
| 20260504024038 | 50 | 47 | 0.0 | 0.9 | 0.00 | 0.00 | 0.00 | 50 | 1013.0 |
| 20260504023534 | 50 | 295 | 0.9 | 0.9 | 0.00 | 0.00 | 0.00 | 49 | 1013.0 |
| 20260504023030 | 51 | 248 | 0.0 | 0.9 | 0.00 | 0.00 | 0.00 | 50 | 1012.6 |
| 20260504022526 | 51 | 212 | 1.7 | 1.7 | 0.00 | 0.00 | 0.00 | 45 | 1012.9 |
| 20260504022023 | 51 | 230 | 0.0 | 1.7 | 0.00 | 0.00 | 0.00 | 45 | 1012.8 |
| 20260504021520 | 51 | 205 | 0.9 | 0.9 | 0.00 | 0.00 | 0.00 | 47 | 1013.0 |
| 20260504021017 | 51 | 207 | 0.0 | 0.9 | 0.00 | 0.00 | 0.00 | 46 | 1013.1 |
| 20260504020514 | 51 | 226 | 1.7 | 2.6 | 0.00 | 0.00 | 0.00 | 47 | 1013.0 |
| 20260504020010 | 51 | 163 | 0.9 | 2.6 | 0.00 | 0.00 | 0.00 | 48 | 1013.0 |
| 20260504015507 | 51 | 235 | 0.9 | 1.7 | 0.00 | 0.00 | 0.00 | 45 | 1013.0 |
| 20260504015003 | 52 | 257 | 0.9 | 2.6 | 0.00 | 0.00 | 0.00 | 46 | 1013.0 |
| 20260504014459 | 52 | 303 | 1.7 | 2.6 | 0.00 | 0.00 | 0.00 | 44 | 1013.0 |
| 20260504013956 | 52 | 255 | 1.7 | 2.6 | 0.00 | 0.00 | 0.00 | 45 | 1013.0 |
| 20260504013454 | 52 | 266 | 4.3 | 8.7 | 0.00 | 0.00 | 0.00 | 43 | 1013.0 |
| 20260504012950 | 52 | 258 | 3.5 | 6.1 | 0.00 | 0.00 | 0.00 | 43 | 1012.9 |
| 20260504012448 | 52 | 221 | 2.6 | 7.0 | 0.00 | 0.00 | 0.00 | 43 | 1013.0 |
| 20260504011946 | 52 | 294 | 2.6 | 5.2 | 0.00 | 0.00 | 0.00 | 42 | 1013.0 |
| 20260504011442 | 52 | 280 | 1.7 | 2.6 | 0.00 | 0.00 | 0.00 | 42 | 1013.1 |
| 20260504010938 | 52 | 236 | 1.7 | 5.2 | 0.00 | 0.00 | 0.00 | 43 | 1012.9 |
| 20260504010434 | 53 | 270 | 0.9 | 1.7 | 0.00 | 0.00 | 0.00 | 43 | 1012.8 |
| 20260504005930 | 53 | 270 | 1.7 | 3.5 | 0.00 | 0.00 | 0.00 | 42 | 1012.5 |
| 20260504005427 | 53 | 293 | 2.6 | 5.2 | 0.00 | 0.00 | 0.00 | 41 | 1012.9 |
| 20260504004925 | 53 | 257 | 7.0 | 7.8 | 0.00 | 0.00 | 0.00 | 42 | 1012.4 |
| 20260504004422 | 52 | 257 | 7.8 | 9.6 | 0.00 | 0.00 | 0.00 | 42 | 1012.5 |
| 20260504003919 | 52 | 260 | 3.5 | 7.8 | 0.00 | 0.00 | 0.00 | 43 | 1012.6 |
| 20260504003415 | 53 | 265 | 3.5 | 6.1 | 0.00 | 0.00 | 0.00 | 43 | 1012.5 |
| 20260504002912 | 53 | 286 | 5.2 | 8.7 | 0.00 | 0.00 | 0.00 | 43 | 1012.5 |
| 20260504002409 | 52 | 253 | 2.6 | 12.2 | 0.00 | 0.00 | 0.00 | 43 | 1012.3 |
| 20260504001907 | 52 | 279 | 1.7 | 5.2 | 0.00 | 0.00 | 0.00 | 44 | 1012.3 |
| 20260504001404 | 52 | 261 | 2.6 | 3.5 | 0.00 | 0.00 | 0.00 | 43 | 1012.3 |
| 20260504000900 | 53 | 280 | 0.9 | 2.6 | 0.00 | 0.00 | 0.00 | 43 | 1012.4 |
| 20260504000357 | 53 | 266 | 1.7 | 3.5 | 0.00 | 0.00 | 0.00 | 43 | 1012.4 |
| 20260503235855 | 53 | 278 | 5.2 | 7.8 | 0.00 | 0.00 | 0.00 | 42 | 1012.4 |
| 20260503235353 | 53 | 261 | 1.7 | 5.2 | 0.00 | 0.00 | 0.00 | 42 | 1012.5 |
| 20260503234850 | 53 | 257 | 5.2 | 11.3 | 0.00 | 0.00 | 0.00 | 42 | 1012.2 |
| 20260503234348 | 53 | 266 | 6.1 | 8.7 | 0.00 | 0.00 | 0.00 | 41 | 1012.3 |
| 20260503233845 | 53 | 284 | 5.2 | 13.0 | 0.00 | 0.00 | 0.00 | 41 | 1012.1 |
| 20260503233341 | 53 | 261 | 3.5 | 7.0 | 0.00 | 0.00 | 0.00 | 41 | 1012.2 |
| 20260503232838 | 53 | 261 | 10.4 | 13.0 | 0.00 | 0.00 | 0.00 | 41 | 1012.0 |
| 20260503232335 | 53 | 266 | 3.5 | 7.0 | 0.00 | 0.00 | 0.00 | 43 | 1011.9 |
| 20260503231833 | 53 | 206 | 2.6 | 5.2 | 0.00 | 0.00 | 0.00 | 43 | 1012.1 |
| 20260503231330 | 53 | 243 | 2.6 | 7.0 | 0.00 | 0.00 | 0.00 | 43 | 1011.7 |
| 20260503230826 | 53 | 229 | 1.7 | 3.5 | 0.00 | 0.00 | 0.00 | 42 | 1011.7 |
| 20260503230323 | 54 | 227 | 5.2 | 7.8 | 0.00 | 0.00 | 0.00 | 41 | 1011.7 |
| 20260503225820 | 54 | 268 | 3.5 | 7.0 | 0.00 | 0.00 | 0.00 | 40 | 1011.9 |
| 20260503225316 | 54 | 253 | 2.6 | 6.1 | 0.00 | 0.00 | 0.00 | 40 | 1011.8 |
| 20260503224813 | 54 | 227 | 5.2 | 11.3 | 0.00 | 0.00 | 0.00 | 40 | 1011.7 |
| 20260503224310 | 54 | 239 | 5.2 | 12.2 | 0.00 | 0.00 | 0.00 | 40 | 1011.8 |
| 20260503223808 | 54 | 209 | 1.7 | 3.5 | 0.00 | 0.00 | 0.00 | 43 | 1011.7 |
| 20260503223305 | 54 | 268 | 3.5 | 5.2 | 0.00 | 0.00 | 0.00 | 40 | 1012.0 |
| 20260503222801 | 54 | 259 | 5.2 | 9.6 | 0.00 | 0.00 | 0.00 | 41 | 1011.7 |
| 20260503222259 | 54 | 252 | 5.2 | 7.0 | 0.00 | 0.00 | 0.00 | 41 | 1011.9 |
| 20260503221757 | 54 | 245 | 7.0 | 8.7 | 0.00 | 0.00 | 0.00 | 41 | 1011.9 |
| 20260503221255 | 53 | 263 | 9.6 | 13.9 | 0.00 | 0.00 | 0.00 | 41 | 1011.9 |
| 20260503220751 | 53 | 233 | 2.6 | 6.1 | 0.00 | 0.00 | 0.00 | 41 | 1012.0 |
| 20260503220248 | 53 | 286 | 2.6 | 3.5 | 0.00 | 0.00 | 0.00 | 42 | 1011.9 |
| 20260503215744 | 53 | 257 | 3.5 | 6.1 | 0.00 | 0.00 | 0.00 | 42 | 1012.1 |
| 20260503215242 | 53 | 248 | 5.2 | 9.6 | 0.00 | 0.00 | 0.00 | 40 | 1012.1 |
| 20260503214740 | 54 | 242 | 3.5 | 7.8 | 0.00 | 0.00 | 0.00 | 43 | 1011.8 |
| 20260503214236 | 53 | 248 | 2.6 | 7.0 | 0.00 | 0.00 | 0.00 | 44 | 1012.0 |
| 20260503213735 | 53 | 252 | 4.3 | 11.3 | 0.00 | 0.00 | 0.00 | 42 | 1012.0 |
| 20260503213232 | 54 | 270 | 8.7 | 12.2 | 0.00 | 0.00 | 0.00 | 42 | 1011.6 |
| 20260503212728 | 54 | 259 | 5.2 | 8.7 | 0.00 | 0.00 | 0.00 | 42 | 1012.0 |
| 20260503212226 | 54 | 238 | 5.2 | 7.0 | 0.00 | 0.00 | 0.00 | 41 | 1011.8 |
| 20260503211724 | 53 | 223 | 1.7 | 13.0 | 0.00 | 0.00 | 0.00 | 40 | 1012.0 |
| 20260503211219 | 53 | 262 | 7.0 | 8.7 | 0.00 | 0.00 | 0.00 | 42 | 1012.0 |
| 20260503210715 | 53 | 262 | 3.5 | 7.8 | 0.00 | 0.00 | 0.00 | 41 | 1011.9 |
| 20260503210213 | 53 | 300 | 4.3 | 8.7 | 0.00 | 0.00 | 0.00 | 42 | 1012.1 |
| 20260503205708 | 53 | 281 | 8.7 | 14.8 | 0.00 | 0.00 | 0.00 | 42 | 1012.1 |
| 20260503205204 | 53 | 285 | 7.0 | 11.3 | 0.00 | 0.00 | 0.00 | 42 | 1012.0 |
| 20260503204701 | 53 | 280 | 3.5 | 8.7 | 0.00 | 0.00 | 0.00 | 42 | 1012.0 |
| 20260503204159 | 52 | 288 | 4.3 | 6.1 | 0.00 | 0.00 | 0.00 | 44 | 1012.1 |
| 20260503203655 | 52 | 284 | 6.1 | 7.0 | 0.00 | 0.00 | 0.00 | 42 | 1012.1 |
| 20260503203153 | 52 | 284 | 5.2 | 9.6 | 0.00 | 0.00 | 0.00 | 43 | 1012.3 |
| 20260503202650 | 52 | 259 | 6.1 | 11.3 | 0.00 | 0.00 | 0.00 | 43 | 1012.2 |
| 20260503202148 | 53 | 297 | 5.2 | 13.0 | 0.00 | 0.00 | 0.00 | 44 | 1012.2 |